Starlink 3100

operational
NORAD ID: 49144 Int'l Des: 2021-082 Owner: SPXS Country: US Constellation: starlink
LEOCIRCULAR

Über Starlink 3100

Beschreibung wird geladen...

Live-Position

3D-Globus wird geladen...

Nächste Überflüge

Höhenverlauf

Altitude vs Time

uPlot chart will show altitude changes over time

Zweizeiliger Elementsatz

1 49144U 21082Q 25349.18332812 .00000797 00000-0 74581-4 0 9998
2 49144 69.9994 147.5139 0002851 271.3385 88.7448 14.98331106233323
Epoch: 15. Dez. 2025 • Age: 23 hours

Aktueller Status

Höhe 583.7 km
Geschwindigkeit 7.57 km/s
Subsatellitenpunkt -35.45°S, 162.06°W
Startdatum 14. Sept. 2021
Alter 4.2 years
Typ internet

Technische Details

Klassifizierung Payload
Masse 297.00 kg
Trockenmasse 275.00 kg
Gesamtmasse 297.00 kg
Länge 0.20 m
Durchmesser 2.80 m
Spannweite 9.00 m
Form Box + pan
Hersteller SPXS
Bus-Typ Starlink
Phasenstatus In Orbit
Besitzer/Staat SPXS/US

Große Konstellationen

Loading constellations...